Retour au catalogue

SL-6 DEB

ActifHEO
NORAD 13908·DEBRIS·🇷🇺 Russia

Lancé Sep 11, 1981 depuis Plesetsk Cosmodrome

Loading…

Prochains Passages (prochaines 24 heures)

TLE

FraisSource: Space-Track

Époque: Sep 9, 2026, 19:30 UTC

1 13908U 81088H   26252.81268022  .00000024  00000-0  29294-3 0  9997
2 13908  62.9277  72.1669 4712634 303.0140  20.1830  5.43683581 23614

Suivez SL-6 DEB en temps réel avec AllMySat

Download on the App Store